CAPE
0 0 0 0 0 1 0 0 0 0 0 3 0 0 0 0 0 0 0 0 0 0
0 0 0 0 0 0 0 0 0 0 2 1 0 0 0 0 0 0 0 0 0 0
0 0 0 0 0 0 0 0 0 1 1 1 0 0 0 0 0 0 0 0 0 0
0 0 0 0 0 0 0 0 0 0 1 1 3 0 0 0 0 0 0 0 0 0
0 0 0 0 0 0 1 1 3 0 0 1 2 1 2 0 0 0 0 0 0 0
0 0 0 0 0 1 1 2 2 2 1 1 1 3 2 3 3 2 0 0 0 0
0 0 0 0 0 1 1 1 0 2 2 2 1 2 2 2 2 0 1 0 1 0
0 0 0 0 0 0 0 2 1 1 0 0 0 1 2 2 3 3 2 2 1 1
0 0 0 0 0 0 0 0 0 0 0 0 0 1 4 3 2 3 3 0 1 1
0 0 0 0 0 0 0 0 0 0 0 0 0 1 2 3 2 2 3 1 1 1
0 0 0 0 0 0 0 0 0 0 0 0 0 0 2 2 1 1 0 1 2 1
0 0 0 0 0 0 0 0 0 0 0 0 0 0 4 2 1 1 1 1 1 1
0 0 0 0 0 0 0 0 0 0 0 0 0 0 1 3 1 1 0 2 2 2
0 0 0 0 0 0 0 0 0 0 0 0 0 0 0 2 2 2 2 3 2 2
CIN
-0 -0 -0 -0 -0 -0 -0 -0 -0 -0 -0 -0 -0 -0 -0 -0 -0 -0 -0 -0 -0 -0
-0 -0 -0 -0 -0 -0 -0 -0 -0 -0 -0 -0 -0 -0 -0 -0 -0 -0 -0 -0 -0 -0
-0 -0 -0 -0 -0 -0 -0 -0 -0 -0 -0 -0 -0 -0 -0 -0 -0 -0 -0 -0 -0 -0
-0 -0 -0 -0 -0 -0 -0 -0 -0 -0 -0 -0 -0 -0 -0 -0 -0 -0 -0 -0 -0 -0
-0 -0 -0 -0 -0 -0 -0 -0 -0 -0 -0 -0 -0 -0 -0 -0 -0 -0 -0 -0 -0 -0
-0 -0 -0 -0 -0 -0 -0 -0 -0 -0 -0 -0 -0 -0 -0 -0 -0 -0 -0 -0 -0 -0
-0 -0 -0 -0 -0 -0 -0 -0 -0 -0 -0 -0 -0 -0 -0 -0 -0 -0 -0 -0 -0 -0
-0 -0 -0 -0 -0 -0 -0 -0 -0 -0 -0 -0 -0 -0 -0 -0 -0 -0 -0 -0 -0 -0
-0 -0 -0 -0 -0 -0 -0 -0 -0 -0 -0 -0 -0 -0 -0 -0 -0 -0 -0 -0 -0 -0
-0 -0 -0 -0 -0 -0 -0 -0 -0 -0 -0 -0 -0 -0 -0 -0 -0 -0 -0 -0 -0 -0
-0 -0 -0 -0 -0 -0 -0 -0 -0 -0 -0 -0 -0 -0 -0 -0 -0 -0 -0 -0 -0 -0
-0 -0 -0 -0 -0 -0 -0 -0 -0 -0 -0 -0 -0 -0 -0 -0 -0 -0 -0 -0 -0 -0
-0 -0 -0 -0 -0 -0 -0 -0 -0 -0 -0 -0 -0 -0 -0 -0 -0 -0 -0 -0 -0 -0
-0 -0 -0 -0 -0 -0 -0 -0 -0 -0 -0 -0 -0 -0 -0 -0 -0 -0 -0 -0 -0 -0
Wind_Speed
27 28 29 29 28 30 31 28 23 22 27 27 23 23 24 24 26 27 29 31 31 33
28 27 25 20 22 27 29 27 25 25 25 26 21 21 21 22 23 25 27 29 33 34
31 25 16 13 16 19 23 23 25 25 26 24 20 15 19 19 21 24 25 27 31 32
32 31 25 17 15 15 13 15 17 22 22 23 20 18 19 17 19 18 18 21 24 28
31 31 31 29 28 24 21 17 16 15 22 26 26 20 17 16 14 15 13 15 19 22
30 31 31 32 31 28 26 26 22 20 18 17 19 23 24 22 18 16 13 11 15 15
29 29 29 31 31 28 25 23 23 24 23 23 20 19 21 23 19 10 10 11 11 9
28 28 28 29 28 29 29 28 27 27 26 24 25 23 22 18 17 13 9 9 9 6
27 28 28 28 28 28 28 27 28 28 28 28 25 25 27 21 13 10 7 6 4 5
28 29 29 28 29 29 28 28 28 28 28 29 28 27 27 25 16 8 5 3 2 1
26 28 28 29 29 29 28 29 29 28 29 30 29 30 32 30 25 12 3 3 1 1
22 25 27 29 30 29 28 29 28 27 26 26 28 29 35 35 27 28 20 16 17 12
21 22 25 25 27 26 26 27 28 27 25 25 24 24 28 32 27 25 21 20 20 22
21 22 24 24 25 25 25 26 27 27 26 26 28 27 28 30 26 23 22 21 20 22
Wind_Direction
355 358 359 356 1 356 355 357 359 350 329 326 327 325 321 316 311 307 303 300 297 294
358 4 5 12 10 5 2 1 360 353 346 336 339 334 329 324 319 314 309 305 300 297
348 3 14 17 16 16 10 11 5 359 350 348 349 348 337 331 326 320 316 311 306 303
342 350 4 14 15 17 19 20 17 8 7 358 355 351 341 337 332 325 321 317 313 309
339 344 348 355 360 3 9 16 19 21 9 1 355 357 352 345 341 334 325 319 320 316
338 341 344 346 352 1 3 2 9 13 16 17 14 8 359 357 352 344 340 330 329 320
334 342 345 344 349 1 9 13 11 7 5 6 10 12 7 359 358 352 346 341 337 329
329 338 342 344 349 353 357 360 2 3 7 7 4 7 5 2 359 354 348 349 351 354
329 335 338 342 345 349 352 355 357 358 359 360 4 5 2 3 353 349 344 340 351 5
328 331 335 340 342 343 347 350 352 354 355 355 356 359 4 4 3 336 321 326 321 319
331 331 333 337 340 340 344 345 348 352 354 352 354 354 354 3 7 7 358 13 30 71
337 334 334 334 336 339 341 343 347 354 359 2 358 356 348 353 12 14 22 28 24 33
335 336 335 340 338 342 344 344 344 348 358 5 10 15 7 0 11 15 20 17 16 13
330 332 333 336 338 341 344 344 344 344 350 356 357 3 6 4 16 24 25 18 16 13